Terminal Aerodrome Forecast
Issued by NWS Sterling, VA

Current Version | Previous Version | Text Only | Print | Product List | Glossary Off
Versions: 1 2 3 4 5 6 7 8 9 10 11 12 13 14 15 16 17 18 19 20 21 22 23 24 25 26 27

692
FTUS41 KLWX 202111 AAA
TAFIAD
TAF AMD
KIAD 202111Z 2021/2124 VRB03KT P6SM SKC
     FM210500 00000KT P6SM BKN050
     FM211600 19006KT P6SM BKN060=

USA.gov is the U.S. government's official web portal to all federal, state and local government web resources and services.